FW2748 Weather Reports


time (UTC)temp
C
wind
direction
speed
KPH
gust
KPH
rain 1hr
cm
rain 24hr
cm
rain mn
cm
humidity
%
barometer
mb
20260906222306 27 7 9.7 19.3 0.00 0.00 0.00 55 1035.6
20260906221806 27 2 16.1 22.5 0.00 0.00 0.00 54 1035.6
20260906221306 27 349 14.5 29.0 0.00 0.00 0.00 54 1035.6
20260906220306 27 12 14.5 19.3 0.00 0.00 0.00 55 1035.6
20260906215807 27 0 19.3 19.3 0.00 0.00 0.00 55 1035.6
20260906215307 27 0 19.3 32.2 0.00 0.00 0.00 55 1035.6
20260906214806 27 14 14.5 24.1 0.00 0.00 0.00 56 1035.6
20260906214307 27 17 24.1 24.1 0.00 0.00 0.00 56 1035.6
20260906213806 27 359 11.3 24.1 0.00 0.00 0.00 55 1035.6
20260906213307 27 31 14.5 25.7 0.00 0.00 0.00 55 1035.6
20260906212307 27 17 16.1 16.1 0.00 0.00 0.00 56 1035.6
20260906211806 27 33 19.3 25.7 0.00 0.00 0.00 56 1035.6
20260906210807 27 41 8.0 22.5 0.00 0.00 0.00 57 1035.6
20260906210307 27 63 8.0 22.5 0.00 0.00 0.00 56 1035.6
20260906205807 27 51 9.7 16.1 0.00 0.00 0.00 57 1035.6
20260906205307 26 21 9.7 9.7 0.00 0.00 0.00 57 1035.6
20260906204306 26 18 9.7 11.3 0.00 0.00 0.00 58 1035.6
20260906203806 26 0 9.7 12.9 0.00 0.00 0.00 57 1035.6
20260906203306 26 0 12.9 12.9 0.00 0.00 0.00 57 1035.6
20260906202806 26 3 9.7 14.5 0.00 0.00 0.00 57 1035.6
20260906202307 26 64 8.0 9.7 0.00 0.00 0.00 57 1035.6
20260906201806 26 50 0.0 8.0 0.00 0.00 0.00 59 1035.6
20260906201306 26 47 0.0 8.0 0.00 0.00 0.00 59 1035.6
20260906200806 26 81 8.0 14.5 0.00 0.00 0.00 59 1035.6
20260906200306 25 58 4.8 14.5 0.00 0.00 0.00 59 1035.6
20260906195307 25 90 9.7 9.7 0.00 0.00 0.00 60 1035.6
20260906194808 25 95 6.4 9.7 0.00 0.00 0.00 60 1035.6
20260906194306 25 90 6.4 12.9 0.00 0.00 0.00 60 1035.6
20260906193806 25 62 8.0 8.0 0.00 0.00 0.00 60 1035.6
20260906193306 25 62 8.0 8.0 0.00 0.00 0.00 61 1035.6
20260906192806 25 70 8.0 12.9 0.00 0.00 0.00 60 1035.6
20260906191306 25 82 4.8 8.0 0.00 0.00 0.00 63 1035.6
20260906190806 24 22 1.6 11.3 0.00 0.00 0.00 63 1035.6
20260906190306 24 19 4.8 8.0 0.00 0.00 0.00 63 1035.6
20260906185807 24 5 4.8 9.7 0.00 0.00 0.00 64 1035.6
20260906185306 24 0 1.6 8.0 0.00 0.00 0.00 64 1035.6
20260906184807 23 51 4.8 11.3 0.00 0.00 0.00 65 1035.6
20260906184305 24 46 4.8 11.3 0.00 0.00 0.00 63 1035.6
20260906183806 24 43 6.4 9.7 0.00 0.00 0.00 64 1035.6
20260906183306 24 44 9.7 16.1 0.00 0.00 0.00 64 1035.6
20260906182807 23 58 1.6 16.1 0.00 0.00 0.00 65 1035.6
20260906182306 23 21 9.7 12.9 0.00 0.00 0.00 64 1035.6
20260906181806 23 340 8.0 14.5 0.00 0.00 0.00 65 1035.6
20260906181306 23 49 11.3 14.5 0.00 0.00 0.00 66 1035.6
20260906180806 22 6 4.8 14.5 0.00 0.00 0.00 68 1035.6
20260906180305 22 345 3.2 9.7 0.00 0.00 0.00 67 1035.6
20260906175306 22 34 4.8 12.9 0.00 0.00 0.00 67 1035.6
20260906174806 22 29 6.4 11.3 0.00 0.00 0.00 66 1035.6
20260906174306 22 343 8.0 14.5 0.00 0.00 0.00 66 1035.6
20260906173305 22 0 9.7 11.3 0.00 0.00 0.00 66 1035.6
20260906172306 22 39 11.3 14.5 0.00 0.00 0.00 67 1035.6
20260906171806 22 311 6.4 9.7 0.00 0.00 0.00 66 1035.6
20260906171307 22 8 9.7 11.3 0.00 0.00 0.00 66 1035.6
20260906170805 22 13 8.0 9.7 0.00 0.00 0.00 66 1035.6
20260906170306 22 12 11.3 19.3 0.00 0.00 0.00 65 1035.6
20260906165807 22 39 9.7 14.5 0.00 0.00 0.00 64 1035.6
20260906165307 22 29 11.3 16.1 0.00 0.00 0.00 64 1035.6
20260906164806 22 5 12.9 12.9 0.00 0.00 0.00 67 1035.6
20260906164306 22 2 8.0 16.1 0.00 0.00 0.00 67 1035.6
20260906163806 21 358 8.0 11.3 0.00 0.00 0.00 67 1035.6
20260906163305 21 25 8.0 11.3 0.00 0.00 0.00 68 1035.6
20260906162306 21 15 3.2 9.7 0.00 0.00 0.00 69 1035.6
20260906161806 21 15 6.4 11.3 0.00 0.00 0.00 68 1035.6
20260906160805 20 355 3.2 4.8 0.00 0.00 0.00 67 1035.6
20260906160306 20 355 4.8 9.7 0.00 0.00 0.00 67 1035.6
20260906155806 20 238 4.8 4.8 0.00 0.00 0.00 67 1035.6
20260906155307 20 210 3.2 8.0 0.00 0.00 0.00 66 1035.6
20260906154806 20 210 6.4 8.0 0.00 0.00 0.00 67 1035.6
20260906154307 20 210 4.8 4.8 0.00 0.00 0.00 68 1035.6
20260906153806 19 209 1.6 4.8 0.00 0.00 0.00 68 1035.6
20260906153306 19 209 1.6 3.2 0.00 0.00 0.00 68 1035.6
20260906152805 18 209 3.2 4.8 0.00 0.00 0.00 68 1035.6
20260906152307 18 209 1.6 3.2 0.00 0.00 0.00 70 1035.6
20260906151306 17 209 3.2 3.2 0.00 0.00 0.00 70 1035.6
20260906150306 17 209 4.8 4.8 0.00 0.00 0.00 70 1035.6
20260906145806 17 209 3.2 8.0 0.00 0.00 0.00 70 1035.6
20260906145307 17 209 4.8 9.7 0.00 0.00 0.00 71 1035.6
20260906144805 17 209 6.4 8.0 0.00 0.00 0.00 71 1035.6
20260906144305 17 209 8.0 11.3 0.00 0.00 0.00 72 1035.6
20260906143806 17 208 8.0 9.7 0.00 0.00 0.00 71 1035.6
20260906143306 16 207 8.0 12.9 0.00 0.00 0.00 71 1035.6
20260906142806 16 208 6.4 11.3 0.00 0.00 0.00 72 1035.6
20260906142307 16 202 3.2 9.7 0.00 0.00 0.00 72 1035.6
20260906141805 16 202 8.0 12.9 0.00 0.00 0.00 73 1035.6
20260906141306 15 200 9.7 14.5 0.00 0.00 0.00 74 1035.6
20260906140806 15 200 4.8 9.7 0.00 0.00 0.00 74 1035.6
20260906140305 15 190 4.8 8.0 0.00 0.00 0.00 75 1035.6
20260906135805 14 188 8.0 8.0 0.00 0.00 0.00 76 1035.6
20260906135306 14 186 4.8 4.8 0.00 0.00 0.00 76 1035.6
20260906134805 14 192 6.4 8.0 0.00 0.00 0.00 76 1035.6
20260906133806 14 197 4.8 8.0 0.00 0.00 0.00 75 1035.6
20260906133305 14 197 4.8 9.7 0.00 0.00 0.00 76 1035.6
20260906132307 13 195 3.2 4.8 0.00 0.00 0.00 77 1035.6
20260906131805 13 195 1.6 4.8 0.00 0.00 0.00 78 1035.6
20260906131306 13 195 6.4 8.0 0.00 0.00 0.00 78 1035.6
20260906130805 13 195 11.3 12.9 0.00 0.00 0.00 78 1035.6
20260906130305 13 161 4.8 8.0 0.00 0.00 0.00 78 1035.6
20260906125805 13 161 4.8 4.8 0.00 0.00 0.00 78 1035.6
20260906125306 13 161 6.4 9.7 0.00 0.00 0.00 78 1035.6
20260906124805 13 155 1.6 4.8 0.00 0.00 0.00 77 1035.6
20260906124306 13 155 1.6 3.2 0.00 0.00 0.00 78 1035.6
20260906123807 13 155 0.0 3.2 0.00 0.00 0.00 78 1035.6
20260906123306 13 155 3.2 3.2 0.00 0.00 0.00 77 1035.6
20260906122805 13 155 0.0 1.6 0.00 0.00 0.00 77 1035.6
20260906122306 13 155 0.0 1.6 0.00 0.00 0.00 77 1035.6
20260906121806 13 155 1.6 3.2 0.00 0.00 0.00 77 1035.6
20260906121305 13 155 3.2 3.2 0.00 0.00 0.00 77 1035.6
20260906120805 13 155 3.2 3.2 0.00 0.00 0.00 76 1035.6
20260906120305 13 155 0.0 0.0 0.00 0.00 0.00 76 1035.6
20260906115805 14 155 4.8 4.8 0.00 0.00 0.00 77 1035.6
20260906115306 14 155 0.0 1.6 0.00 0.00 0.00 76 1035.6
20260906114805 14 155 0.0 1.6 0.00 0.00 0.00 75 1035.6
20260906113305 15 155 0.0 3.2 0.00 0.00 0.00 74 1035.6
20260906112806 15 155 3.2 4.8 0.00 0.00 0.00 74 1035.6
20260906112307 15 155 1.6 4.8 0.00 0.00 0.00 75 1035.6
20260906111805 14 155 0.0 0.0 0.00 0.00 0.00 75 1035.6
20260906111306 14 155 0.0 1.6 0.00 0.00 0.00 75 1035.6
20260906110305 14 155 1.6 4.8 0.00 0.00 0.00 74 1035.6
20260906105806 15 155 6.4 8.0 0.00 0.00 0.00 74 1035.6
20260906105306 15 155 1.6 3.2 0.00 0.00 0.00 73 1035.6
20260906104806 15 155 1.6 4.8 0.00 0.00 0.00 73 1035.6
20260906103805 15 155 0.0 3.2 0.00 0.00 0.00 73 1035.6
20260906102805 14 155 4.8 4.8 0.00 0.00 0.00 75 1035.6
20260906101805 14 155 3.2 9.7 0.00 0.00 0.00 75 1035.6
20260906101305 14 154 9.7 9.7 0.00 0.00 0.00 75 1035.6
20260906100805 14 154 3.2 4.8 0.00 0.00 0.00 75 1035.6
20260906100306 14 154 1.6 3.2 0.00 0.00 0.00 74 1035.6
20260906095805 14 154 3.2 8.0 0.00 0.00 0.00 74 1035.6
20260906094805 14 154 3.2 4.8 0.00 0.00 0.00 73 1035.6
20260906094305 15 154 1.6 1.6 0.00 0.00 0.00 72 1035.6
20260906093806 15 154 1.6 3.2 0.00 0.00 0.00 72 1035.6
20260906092805 15 154 4.8 8.0 0.00 0.00 0.00 72 1035.6
20260906092306 15 154 8.0 9.7 0.00 0.00 0.00 72 1035.6
20260906091305 15 154 3.2 4.8 0.00 0.00 0.00 71 1035.6
20260906090805 15 154 4.8 8.0 0.00 0.00 0.00 71 1035.6
20260906085806 15 154 4.8 8.0 0.00 0.00 0.00 70 1035.6
20260906085307 16 154 8.0 9.7 0.00 0.00 0.00 69 1035.6
20260906084806 16 134 4.8 9.7 0.00 0.00 0.00 67 1035.6
20260906083305 16 123 4.8 8.0 0.00 0.00 0.00 66 1035.6
20260906082806 16 112 4.8 8.0 0.00 0.00 0.00 65 1035.6
20260906081806 17 72 8.0 8.0 0.00 0.00 0.00 63 1035.6
20260906081305 17 56 3.2 3.2 0.00 0.00 0.00 63 1035.6
20260906080805 17 56 0.0 1.6 0.00 0.00 0.00 62 1035.6
20260906074806 17 56 4.8 4.8 0.00 0.00 0.00 62 1035.6
20260906074305 17 56 1.6 3.2 0.00 0.00 0.00 61 1035.6
20260906073805 17 56 3.2 4.8 0.00 0.00 0.00 61 1035.6
20260906073305 17 56 4.8 4.8 0.00 0.00 0.00 61 1035.6
20260906072805 17 56 1.6 1.6 0.00 0.00 0.00 60 1035.6
20260906072306 18 56 1.6 4.8 0.00 0.00 0.00 60 1035.6
20260906071805 18 56 3.2 4.8 0.00 0.00 0.00 60 1035.6
20260906071306 18 56 3.2 4.8 0.00 0.00 0.00 59 1035.6
20260906070805 18 56 1.6 3.2 0.00 0.00 0.00 58 1035.6
20260906070305 18 56 3.2 3.2 0.00 0.00 0.00 57 1035.6
20260906065805 18 56 1.6 3.2 0.00 0.00 0.00 57 1035.6
20260906065306 18 56 1.6 3.2 0.00 0.00 0.00 56 1035.6
20260906064805 18 56 1.6 3.2 0.00 0.00 0.00 54 1035.6
20260906064305 19 56 1.6 8.0 0.00 0.00 0.00 54 1035.6
20260906063804 19 56 4.8 9.7 0.00 0.00 0.00 53 1035.6
20260906063305 19 56 1.6 4.8 0.00 0.00 0.00 53 1035.6
20260906062306 19 56 4.8 8.0 0.00 0.00 0.00 53 1035.6
20260906061805 19 56 4.8 8.0 0.00 0.00 0.00 53 1035.6
20260906061305 19 57 8.0 11.3 0.00 0.00 0.00 53 1035.6
20260906060805 19 56 3.2 8.0 0.00 0.00 0.00 53 1035.6
20260906060305 20 55 4.8 9.7 0.00 0.00 0.00 52 1035.6
20260906055806 20 55 6.4 8.0 0.00 0.00 0.00 52 1035.6
20260906055306 20 55 8.0 8.0 0.00 0.00 0.00 50 1035.6
20260906054804 20 54 3.2 8.0 0.00 0.00 0.00 50 1035.6
20260906054305 20 54 3.2 4.8 0.00 0.00 0.00 50 1035.6
20260906053805 20 54 3.2 4.8 0.00 0.00 0.00 50 1035.6
20260906053305 20 54 4.8 4.8 0.00 0.00 0.00 49 1035.6
20260906052805 20 54 3.2 8.0 0.00 0.00 0.00 48 1035.6
20260906052306 21 55 8.0 9.7 0.00 0.00 0.00 48 1035.6
20260906051804 21 52 9.7 9.7 0.00 0.00 0.00 48 1035.6
20260906051305 21 51 9.7 11.3 0.00 0.00 0.00 48 1035.6
20260906050805 21 45 9.7 11.3 0.00 0.00 0.00 47 1035.6
20260906050305 21 44 8.0 9.7 0.00 0.00 0.00 47 1035.6
20260906045805 21 43 4.8 11.3 0.00 0.00 0.00 47 1035.6
20260906045306 21 40 6.4 9.7 0.00 0.00 0.00 46 1035.6
20260906044806 21 38 8.0 9.7 0.00 0.00 0.00 46 1035.6
20260906044305 21 38 4.8 8.0 0.00 0.00 0.00 45 1035.6
20260906043805 21 36 8.0 9.7 0.00 0.00 0.00 45 1035.6
20260906042806 22 29 8.0 11.3 0.00 0.00 0.00 45 1035.6
20260906042306 22 52 11.3 16.1 0.00 0.00 0.00 44 1035.6
20260906041805 22 48 4.8 19.3 0.00 0.00 0.00 44 1035.6
20260906041304 22 47 8.0 9.7 0.00 0.00 0.00 44 1035.6
20260906040805 22 38 6.4 11.3 0.00 0.00 0.00 43 1035.6
20260906040305 22 37 9.7 12.9 0.00 0.00 0.00 42 1035.6
20260906035306 23 26 9.7 12.9 0.00 0.00 0.00 42 1035.6
20260906034805 23 36 9.7 12.9 0.00 0.00 0.00 42 1035.6
20260906033804 23 17 11.3 16.1 0.00 0.00 0.00 42 1035.6
20260906033304 23 24 9.7 19.3 0.00 0.00 0.00 42 1035.6
20260906032804 23 38 9.7 14.5 0.00 0.00 0.00 41 1035.6
20260906032306 23 35 11.3 11.3 0.00 0.00 0.00 41 1035.6
20260906031805 23 35 11.3 14.5 0.00 0.00 0.00 41 1035.6
20260906031304 23 37 12.9 16.1 0.00 0.00 0.00 41 1035.6
20260906030805 23 35 9.7 12.9 0.00 0.00 0.00 41 1035.6
20260906030305 24 20 9.7 14.5 0.00 0.00 0.00 41 1035.6
20260906025805 24 34 11.3 19.3 0.00 0.00 0.00 41 1035.6
20260906025306 24 41 11.3 19.3 0.00 0.00 0.00 41 1035.6
20260906024804 24 38 17.7 20.9 0.00 0.00 0.00 41 1035.6
20260906024304 24 31 9.7 9.7 0.00 0.00 0.00 41 1035.6
20260906023805 24 29 9.7 12.9 0.00 0.00 0.00 40 1035.6
20260906023305 25 24 9.7 14.5 0.00 0.00 0.00 40 1035.6
20260906022805 25 41 12.9 19.3 0.00 0.00 0.00 40 1035.6
20260906022307 25 24 11.3 11.3 0.00 0.00 0.00 40 1035.6
20260906021804 25 24 11.3 19.3 0.00 0.00 0.00 40 1035.6
20260906021305 25 31 9.7 12.9 0.00 0.00 0.00 39 1035.6
20260906020805 25 28 12.9 12.9 0.00 0.00 0.00 39 1035.6
20260906020304 25 28 11.3 14.5 0.00 0.00 0.00 39 1035.6
20260906015804 25 28 9.7 9.7 0.00 0.00 0.00 38 1035.6
20260906015306 25 28 14.5 16.1 0.00 0.00 0.00 38 1035.6
20260906014805 25 29 14.5 19.3 0.00 0.00 0.00 37 1035.6
20260906014304 26 35 9.7 9.7 0.00 0.00 0.00 37 1035.6
20260906013804 26 34 16.1 19.3 0.00 0.00 0.00 37 1035.6
20260906013304 26 24 9.7 9.7 0.00 0.00 0.00 36 1035.6
20260906012804 26 14 12.9 12.9 0.00 0.00 0.00 36 1035.6
20260906012306 26 5 12.9 12.9 0.00 0.00 0.00 35 1035.6
20260906011804 26 20 11.3 24.1 0.00 0.00 0.00 35 1035.6
20260906010304 26 31 11.3 22.5 0.00 0.00 0.00 33 1035.6
20260906005804 27 24 16.1 16.1 0.00 0.00 0.00 33 1035.6
20260906005306 27 35 16.1 22.5 0.00 0.00 0.00 33 1035.6
20260906004804 27 34 11.3 12.9 0.00 0.00 0.00 32 1035.6
20260906003804 27 25 12.9 19.3 0.00 0.00 0.00 31 1035.6
20260906003304 27 54 19.3 22.5 0.00 0.00 0.00 31 1035.6
20260906002805 27 25 11.3 19.3 0.00 0.00 0.00 31 1035.6
20260906002306 27 39 14.5 14.5 0.00 0.00 0.00 30 1035.6
20260906001804 27 39 16.1 29.0 0.00 0.00 0.00 30 1035.6
20260906001307 28 41 12.9 16.1 0.00 0.00 0.00 30 1035.6
20260906000807 28 15 3.2 19.3 0.00 0.00 0.00 30 1035.6
20260906000307 28 0 0.0 0.0 0.00 0.00 0.00 30 1035.6
20260905235807 28 0 0.0 0.0 0.00 0.00 0.00 29 1035.6
20260905235307 28 1 1.6 24.1 0.00 0.00 0.00 29 1035.6
20260905234807 28 48 24.1 24.1 0.00 0.00 0.00 29 1035.6
20260905233306 28 5 12.9 19.3 0.00 0.00 0.00 29 1035.6
20260905232806 28 46 12.9 29.0 0.00 0.00 0.00 29 1035.6
20260905232307 28 42 14.5 24.1 0.00 0.00 0.00 29 1035.6
20260905231806 28 33 9.7 16.1 0.00 0.00 0.00 29 1035.6
20260905231306 28 30 16.1 20.9 0.00 0.00 0.00 29 1035.6
20260905230307 28 15 14.5 19.3 0.00 0.00 0.00 28 1035.6
20260905225806 28 55 14.5 22.5 0.00 0.00 0.00 28 1035.6
20260905225308 28 43 11.3 14.5 0.00 0.00 0.00 29 1035.6
20260905224806 28 30 14.5 22.5 0.00 0.00 0.00 29 1035.6
20260905224306 28 7 16.1 24.1 0.00 0.00 0.00 29 1035.6
20260905223806 28 23 16.1 20.9 0.00 0.00 0.00 29 1035.6
20260905222806 28 34 14.5 20.9 0.00 0.00 0.00 30 1035.6